Location: Ch�risy
(50.2331°N, 2.9131°E)
Time: 19:18:17
(UTC+00:00)

CZ-4B R/B - Pass Details

Date: 17 January 2021
Orbit: 387 x 458 km, 97.6° (Epoch: 27 February)

Event Time Altitude Azimuth Distance (km) Brightness Sun altitude
Exits shadow 17:12:14 - 34° (NNE) 1,799 4.0 -8.6°
Reaches altitude 10° 17:12:46 10° 38° (NE) 1,603 3.7 -8.7°
Maximum altitude 17:15:39 24° 95° (E) 967 2.6 -9.1°
Drops below altitude 10° 17:18:28 10° 152° (SSE) 1,565 4.1 -9.6°
Sets 17:20:42 0° 166° (SSE) 2,416 5.2 -9.9°
